Other Public Products
Issued by NWS Grand Forks, ND

Home | Current Version | Previous Version | Graphics & Text | Print | Product List | Glossary On
Versions: 1 2 3 4 5 6 7 8 9 10 11 12 13 14 15 16 17 18 19 20 21 22 23 24 25 26 27 28 29 30 31 32 33 34 35 36 37 38 39 40 41 42 43 44 45 46 47 48 49 50
000
FPUS83 KFGF 052331
OPUFGF
PRAIRIE TO PINES WEATHER ROUNDUP
NATIONAL WEATHER SERVICE EASTERN NORTH DAKOTA/GRAND FORKS ND
500 PM CST THU MAR 05 2015

 **SATELLITE DATA USED TO AUGMENT SKY COVER AT AUTOMATED STATIONS**
 *****  WEATHER ACROSS EASTERN NORTH DAKOTA  *****

CITY           SKY/WX    TMP DP  RH WIND       PRES   REMARKS
GRAND FORKS    SUNNY     25  11  55 S18G28    30.12F WCI  11
GRAND FORKS AF SUNNY     26   9  49 SW17      30.10F WCI  13
GRAND CITY NWS   N/A     23 N/A N/A S21         N/A  WCI   8
BUXTON           N/A     24  12  61 S13G24      N/A  WCI  12
DEVILS LAKE    SUNNY     25  14  63 SW12      30.04S WCI  14
FARGO          SUNNY     25   7  46 S20       30.20F WCI  11
WAHPETON ARPT  CLEAR     19   9  63 S15       30.24F WCI   5
$$

 *****  WEATHER ACROSS CENTRAL AND WESTERN NORTH DAKOTA  *****

CITY           SKY/WX    TMP DP  RH WIND       PRES   REMARKS
JAMESTOWN      SUNNY     27  13  55 S14       30.08F WCI  16
BISMARCK       SUNNY     40  14  34 W10       30.05R
MINOT          SUNNY     29  13  51 SW14G20   30.00S WCI  18
MINOT AFB      SUNNY     28  18  66 W12       29.99F WCI  18
GARRISON         N/A     31  16  54 W13       30.03R WCI  21
WILLISTON      SUNNY     41  18  39 W9        30.02S
DICKINSON      SUNNY     42  10  27 NW18      30.01S
HETTINGER      SUNNY     43  11  27 NW20      30.05R
$$

 *****  OTHER OBSERVATIONS NORTHEAST NORTH DAKOTA  *****

CITY           SKY/WX    TMP DP  RH WIND       PRES   REMARKS
WALHALLA         N/A     25  12  58 SW18G26   30.01F WCI  11
LANGDON        NOT AVBL
CAVALIER       FAIR      27  10  50 S13       30.04F WCI  16
GRAFTON        NOT AVBL
CANDO          FAIR      23  14  68 SW14      30.01F WCI  11
FORT TOTTEN      N/A     27  12  52 SW10      29.95  WCI  17
ROLLA          FAIR      19   9  63 SW14G21   29.96F WCI   6
RUGBY          FAIR      23  16  74 SW13      30.01S WCI  11
 ***** THE ABOVE OBSERVATIONS ARE NON NWS ARE NOT QUALITY
        CONTROLLED AND MAY MIS-REPORT RAIN FOR SNOW...
$$

 *****  OTHER OBSERVATIONS SOUTHEAST NORTH DAKOTA *****

CITY           SKY/WX    TMP DP  RH WIND       PRES   REMARKS
COOPERSTOWN    NOT AVBL
VALLEY CITY    FLURRIES  23  14  68 S21G26    30.12S WCI   8
OAKES            N/A     23  12  63 S18G26    30.16S WCI   9
GWINNER        CLEAR     27  12  54 SW21      30.18F WCI  13
SHEYENNE NWR     N/A     25   7  45 SW14      29.95S WCI  13
BUFFALO        NOT AVBL
WYNDMERE       NOT AVBL
 ***** THE ABOVE OBSERVATIONS ARE NON NWS ARE NOT QUALITY
       CONTROLLED AND MAY MIS-REPORT RAIN FOR SNOW...
$$

  *****  WEATHER ACROSS NORTHERN MINNESOTA  *****

CITY           SKY/WX    TMP DP  RH WIND       PRES   REMARKS
FLAG ISLAND    CLEAR     14   1  57 SW20G25   30.06F WCI  -3
WARROAD        SUNNY     16   3  57 S12G21    30.10F WCI   3
ROSEAU         SUNNY     18   7  62 S16G24    30.09F WCI   3
HALLOCK        SUNNY     21  14  73 S21       30.07F WCI   6
THF RVR FALLS  SUNNY     18   7  62 S17       30.14S WCI   2
HALSTAD          N/A     24   5  43 S18         N/A  WCI  11
FOSSTON        SUNNY     16   1  53 S22       30.17F WCI  -2
BAUDETTE       CLEAR     18  -1  43 SW15      30.10F WCI   4
WASKISH        SUNNY     19  -2  38 S6G16     30.15F WCI  11
CROOKSTON      SUNNY     23  10  58 SW23      30.16F WCI   7
$$
  *****  WEATHER ACROSS CENTRAL AND WEST MINNESOTA  *****

CITY           SKY/WX    TMP DP  RH WIND       PRES   REMARKS
BEMIDJI        SUNNY     16  -3  43 SW10G17   30.17F WCI   3
PARK RAPIDS    SUNNY     14  -3  47 S14       30.21F WCI  -1
WADENA         SUNNY     12   0  57 S9        30.24F WCI   0
DETROIT LAKES  SUNNY     18   5  57 S13       30.22R WCI   4
MOORHEAD       SUNNY     23   7  50 S17G24    30.21F WCI   9
FERGUS FALLS   SUNNY     18   3  53 S15       30.28F WCI   3
ELBOW LAKE     FAIR      17   6  62 S15       30.25F WCI   2
MORRIS MN      SUNNY     19   7  58 S14       30.27F WCI   6
STAPLES        SUNNY     12  -2  52 S10       30.26F WCI  -1
WHEATON        SUNNY     18   9  68 S13       30.27F WCI   4
$$
  *****  WEATHER ELSEWHERE ACROSS MINNESOTA  *****

CITY           SKY/WX    TMP DP  RH WIND       PRES   REMARKS
DULUTH         CLEAR     14  -7  38 SW12      30.24F WCI   0
INTRNTL FALLS  CLEAR     16  -6  37 SW12G18   30.14F WCI   3
ELY            CLEAR     12 -11  34 SW10      30.18F WCI  -1
CLOQUET        CLEAR     12  -9  37 SW9       30.26S WCI   0
BRAINERD       SUNNY     11  -3  53 S15       30.28F WCI  -5
HIBBING        CLEAR     15  -8  35 VRB6      30.21F WCI   6
ALEXANDRIA     SUNNY     15   2  56 S12       30.27F WCI   2
SAINT CLOUD    SUNNY     13   0  56 S12       30.35F WCI  -1
MINNEAPOLIS    SUNNY     15   0  51 SW8       30.41F WCI   4
$$

  *****  WEATHER ACROSS SOUTH DAKOTA  *****

CITY           SKY/WX    TMP DP  RH WIND       PRES   REMARKS
SIOUX FALLS    MOSUNNY   28   6  39 S10       30.27F WCI  19
BROOKINGS      NOT AVBL
WATERTOWN      SUNNY     23  10  57 S12       30.20F WCI  12
HURON          SUNNY     34   9  35 S13       30.19F WCI  25
SISSETON         N/A     23  11  60 S12       30.22F WCI  12
ABERDEEN       SUNNY     28  13  53 S16       30.18F WCI  16
MITCHELL       SUNNY     37   4  25 S13       30.22F
PIERRE         SUNNY     35  17  47 S7        30.12F
MOBRIDGE       SUNNY     38  12  34 S15       30.05F
RAPID CITY     SUNNY     46  16  30 N21       30.09R
$$

  *****  SOME WEATHER IN NEARBY STATES *****

CITY           SKY/WX    TMP DP  RH WIND       PRES   REMARKS
GLASGOW MT     MOSUNNY   49  16  26 W16       30.02F
GREAT FALLS MT CLOUDY    49  13  23 SW23      30.10R
CHEYENNE WY    SUNNY     41  14  33 NW13G20   30.17R
SCOTTSBLUFF NE SUNNY     45  14  28 W18       30.19R
OMAHA NE       MOSUNNY   30   5  34 S12       30.42F WCI  20
DES MOINES IA  SUNNY     21  -1  38 SW6       30.49S WCI  13
DAVENPORT IA   CLEAR     11  -2  56 W6        30.54S WCI   1
CHICAGO IL     CLEAR     14  -2  49 W8        30.48S WCI   3
EAU CLAIRE WI  CLEAR     10  -7  46 SW8       30.43S WCI  -2
LA CROSSE WI   CLEAR     15  -2  46 N7        30.47F WCI   5
$$

  *****  SOME NATIONAL WEATHER *****

CITY           SKY/WX    TMP DP  RH WIND       PRES   REMARKS
LA GUARDIA NY  CLOUDY    21  16  79 NW12      30.24R HAZE    WCI   9
RALEIGH NC     CLOUDY    36  32  85 N10G16    30.16R
ATLANTA GA     LGT RAIN  35  31  85 N24G33    30.17R WCI  23
NEW ORLEANS LA CLOUDY    38  31  76 N23G33    30.33R
OKLAHOMA CITY  MOSUNNY   42  15  33 W3        30.49F
ALBUQUERQUE NM SUNNY     50  11  20 SE6       30.30F
SALT LAKE CITY MOSUNNY   48  21  34 CALM      30.41S
LOS ANGELES CA MOSUNNY   71  31  22 W13       30.19F
BOISE ID       SUNNY     56  18  22 CALM      30.34F
SEATTLE WA     PTSUNNY   56  26  31 W3        30.36S
$$

*** WEATHER ACROSS MANITOBA...SASKATCHEWAN AND ONTARIO ***
                ***ONTARIO***

CITY           SKY/WX    TMP DP  RH WIND       PRES   REMARKS
GERALDTON      CLEAR      9 -11  40 SW12      30.09F WCI  -6
THUNDER BAY    PTCLDY    14  -9  34 W12       30.21F WCI   0
SIOUX LOOKOUT  MOCLDY    10  -9  40 SW14G22   30.04F WCI  -5
TORONTO        PTCLDY    12  -4  48 N10       30.37R WCI  -1
BIG TROUT LK   CLEAR      7  -6  56 SW7       29.83F WCI  -5
PICKLE LAKE    MOCLDY     9 -11  40 SW18      29.94F WCI -10
DRYDEN         CLEAR     12  -8  40 SW17G23   30.05F WCI  -5
KENORA         MOCLDY    10  -4  52 SW17G24   30.03F WCI  -7
$$
                *** MANITOBA***

CITY           SKY/WX    TMP DP  RH WIND       PRES   REMARKS
BRANDON        MOSUNNY   14   5  67 W12       29.94F WCI   0
DAUPHIN        PTSUNNY   27   9  46 W16G24    29.82S WCI  14
ISLAND LAKE    CLOUDY    12  -4  48 SW10G20   29.78F WCI  -1
PILOT MOUND      N/A     18  10  73 SW15        N/A  WCI   3
THE PAS        CLOUDY    18   1  49 W10       29.76S WCI   6
THOMPSON       MOCLDY    12   0  57 SW10G18   29.65S WCI  -1
WINNIPEG       PTSUNNY   18   9  68 S20G29    30.01F WCI   1
LYNN LAKE      PTSUNNY   18   5  57 W10G20    29.64R WCI   6
CHURCHILL      LGT SNOW   0  -6  78 SE8       29.59F WCI -15
GILLAM         MOCLDY     9  -8  47 SW9G18    29.64F WCI  -5
$$
                ***SASKATCHEWAN***

CITY           SKY/WX    TMP DP  RH WIND       PRES   REMARKS
ESTEVAN        PTSUNNY   30  19  64 SW12      29.97F WCI  21
KINDERSLEY     PTSUNNY   34  25  69 NW8       29.99R
LLOYDMINSTER   PTSUNNY   32  21  64 W12       29.94R WCI  23
PRINCE ALBERT  MOSUNNY   30  12  47 W18G24    29.87R WCI  18
REGINA         MOSUNNY   27  21  80 W15       29.94R WCI  15


USA.gov is the U.S. government's official web portal to all federal, state and local government web resources and services.